Temp
10 11 10 11 10 12 11 11 11 11 12 12 13 14 15 15 15 16 16 16 17 19 20 20 21 20 19 18 17 17 16 15 14 13 11 10 10 10 10 10 10 11 11 10
9 10 11 10 10 10 10 10 10 11 12 13 13 13 14 15 15 16 16 17 18 19 20 21 21 21 20 18 18 17 16 15 15 13 11 11 10 10 10 10 10 10 10 10
9 11 10 10 10 10 10 10 10 10 12 12 12 13 15 16 16 16 16 16 17 17 19 20 21 21 20 18 18 17 17 15 14 13 10 10 9 10 10 10 10 10 10 10
9 11 10 10 10 10 9 11 11 10 10 11 12 12 14 15 16 16 17 17 17 19 19 20 21 20 21 18 17 17 16 15 14 12 10 10 9 9 10 10 10 10 10 10
10 9 9 10 10 10 10 11 11 11 10 10 11 11 13 14 15 16 17 17 17 19 19 20 21 19 18 16 17 17 16 15 14 12 12 10 9 9 10 10 11 10 10 9
10 9 10 11 10 11 11 10 10 10 10 9 12 11 13 14 16 16 17 17 16 16 18 18 17 16 16 16 16 16 16 14 14 12 11 11 9 9 9 9 10 10 10 10
9 9 9 10 10 10 10 10 10 10 9 11 13 11 13 14 13 13 13 13 12 13 16 16 16 17 17 17 16 15 15 14 14 13 12 10 9 9 9 10 10 10 10 10
9 9 9 9 10 10 9 10 10 10 11 11 12 12 14 13 12 12 11 10 10 11 14 15 16 16 17 16 16 14 13 13 14 13 12 10 9 9 9 9 9 9 9 9
9 9 8 9 10 11 9 9 10 8 10 9 13 14 13 13 13 12 11 10 9 9 12 14 15 14 13 13 10 13 13 14 14 12 12 11 9 9 9 10 9 8 8 9
10 9 10 9 10 10 10 10 8 8 9 10 13 13 12 11 11 11 10 9 8 8 10 13 12 12 11 10 10 10 13 14 13 12 12 11 10 9 9 9 8 9 8 8
9 10 9 10 9 9 9 8 8 8 9 10 10 12 11 10 9 9 8 7 6 6 8 9 10 10 10 10 10 10 11 13 12 11 12 11 10 10 10 10 9 9 8 8
9 9 9 9 10 10 10 9 9 8 9 9 9 11 11 10 9 8 7 6 5 5 6 9 9 9 9 9 9 9 11 12 12 12 12 11 10 9 9 9 8 8 8 8
6 8 8 9 9 8 8 8 8 8 7 8 9 12 11 10 9 8 6 5 4 4 4 7 8 9 9 9 9 9 10 10 11 11 11 10 9 9 9 9 8 8 8 8
5 6 7 9 8 8 8 9 9 7 7 7 8 11 12 11 10 8 5 4 3 2 2 3 5 7 8 8 8 8 8 9 9 10 10 9 9 9 9 9 8 8 8 8
5 5 6 7 7 7 8 8 8 8 9 8 10 10 11 11 11 8 5 3 2 1 0 1 2 4 6 7 8 8 9 9 9 9 9 9 9 9 9 9 9 9 9 9
5 5 5 6 7 7 7 8 8 8 9 9 9 10 12 11 10 8 5 3 2 0 -1 -1 0 1 3 5 6 7 8 8 9 9 9 8 9 9 9 9 8 8 8 8
5 6 6 7 7 7 8 8 8 8 9 9 9 10 12 10 10 7 4 2 2 -1 -2 -2 -1 -1 1 3 3 5 6 6 8 8 7 8 8 8 8 8 8 8 8 8
4 6 5 6 6 6 9 9 9 8 9 10 10 10 9 5 3 2 2 1 -0 -1 -2 -2 -1 -1 1 2 2 3 5 5 7 6 7 7 7 6 7 7 7 7 7 7
5 5 5 5 6 7 8 8 7 7 9 8 8 7 5 2 1 -1 -1 -1 -0 -0 -1 -2 -1 -1 0 1 3 4 3 5 6 6 7 5 5 4 4 5 5 5 5 5
4 5 6 4 5 5 7 7 6 7 8 5 5 7 4 4 5 0 -2 -2 -1 -1 -1 -0 0 1 -1 -1 2 3 3 3 4 3 3 2 3 2 2 2 2 3 3 3
4 4 5 5 5 6 5 5 6 8 6 4 2 5 6 4 1 -3 -3 -4 -3 -3 -2 -2 -1 1 0 0 0 2 1 1 -0 -1 -0 0 -0 0 0 1 1 2 2 2
5 4 4 4 4 4 3 6 5 4 3 1 -0 -0 -2 -3 -3 -4 -4 -4 -3 -3 -4 -3 -2 -2 -2 -2 -0 1 1 -1 0 0 0 1 -0 -1 -1 -0 0 1 1 1
4 4 4 5 6 3 1 1 0 1 2 0 -1 -3 -3 -3 -3 -4 -5 -4 -5 -4 -4 -4 -4 -4 -4 -3 -3 -2 -3 -2 -1 -0 -1 -1 -1 -2 -2 -1 -1 -1 -1 -1
3 2 3 4 4 2 1 -1 -2 -1 -1 -1 -2 -2 -3 -4 -5 -5 -5 -5 -5 -5 -5 -5 -5 -5 -5 -5 -4 -4 -4 -3 -2 -2 -2 -2 -2 -2 -2 -2 -2 -2 -3 -3
1 1 1 3 2 1 -1 -2 -2 -3 -2 -2 -2 -3 -5 -4 -5 -5 -6 -5 -6 -6 -6 -6 -6 -6 -6 -5 -5 -5 -4 -4 -3 -3 -3 -3 -3 -3 -2 -2 -4 -4 -4 -4
-1 -0 1 2 -2 -1 -3 -4 -3 -4 -4 -4 -3 -3 -4 -4 -5 -5 -6 -6 -6 -6 -6 -6 -6 -6 -6 -5 -5 -4 -4 -4 -4 -4 -4 -5 -5 -5 -5 -6 -6 -6 -6 -6
Height
1454 1457 1453 1452 1456 1453 1453 1454 1454 1451 1446 1443 1432 1424 1422 1425 1423 1421 1419 1419 1416 1415 1416 1417 1418 1420 1423 1427 1432 1436 1441 1445 1447 1450 1454 1457 1458 1460 1462 1464 1467 1469 1471 1474
1455 1451 1449 1451 1452 1453 1453 1455 1451 1445 1441 1439 1429 1418 1419 1418 1415 1414 1412 1411 1410 1409 1409 1410 1412 1413 1415 1419 1426 1430 1435 1440 1443 1446 1450 1453 1456 1458 1460 1461 1462 1462 1464 1467
1447 1444 1444 1448 1449 1450 1451 1451 1446 1445 1439 1436 1428 1408 1401 1404 1404 1405 1404 1404 1402 1400 1400 1402 1404 1405 1408 1412 1417 1424 1429 1435 1439 1443 1448 1451 1453 1456 1457 1458 1459 1459 1458 1458
1443 1439 1442 1445 1445 1446 1448 1439 1441 1441 1444 1442 1432 1419 1405 1400 1397 1396 1395 1395 1394 1391 1391 1393 1395 1397 1399 1404 1412 1418 1425 1430 1435 1440 1444 1448 1450 1453 1455 1456 1458 1456 1457 1458
1436 1436 1439 1441 1440 1443 1440 1438 1439 1439 1441 1442 1437 1437 1404 1397 1392 1387 1385 1386 1385 1384 1383 1383 1385 1389 1393 1400 1407 1413 1420 1427 1432 1436 1441 1445 1448 1451 1453 1455 1457 1459 1459 1461
1434 1435 1435 1434 1436 1438 1437 1437 1437 1438 1439 1441 1425 1429 1406 1395 1388 1384 1382 1383 1383 1380 1377 1376 1379 1383 1388 1396 1401 1409 1416 1423 1428 1434 1438 1441 1446 1448 1451 1454 1456 1458 1460 1463
1436 1434 1432 1433 1436 1437 1436 1437 1435 1437 1438 1426 1417 1425 1402 1396 1399 1394 1387 1384 1382 1377 1374 1373 1374 1377 1383 1389 1396 1406 1413 1420 1424 1430 1435 1439 1443 1446 1449 1452 1456 1458 1460 1462
1432 1430 1429 1428 1429 1432 1435 1433 1431 1433 1426 1424 1415 1411 1399 1402 1400 1396 1390 1385 1383 1378 1374 1372 1373 1376 1380 1384 1391 1401 1409 1417 1421 1427 1433 1437 1441 1444 1447 1450 1454 1457 1460 1462
1430 1428 1428 1427 1428 1429 1434 1435 1433 1438 1429 1431 1408 1398 1399 1396 1393 1391 1390 1387 1384 1377 1371 1369 1371 1374 1379 1384 1393 1398 1405 1414 1419 1425 1430 1434 1438 1441 1444 1447 1451 1454 1456 1459
1423 1426 1424 1426 1426 1430 1430 1433 1436 1437 1431 1420 1402 1402 1399 1400 1397 1396 1394 1392 1389 1383 1375 1369 1370 1374 1379 1385 1391 1396 1404 1412 1418 1423 1428 1432 1436 1439 1442 1445 1448 1451 1454 1456
1424 1423 1428 1425 1425 1426 1432 1434 1434 1433 1429 1419 1416 1402 1404 1406 1407 1404 1403 1399 1395 1388 1380 1377 1376 1377 1380 1386 1390 1395 1403 1410 1416 1421 1426 1430 1433 1437 1440 1443 1447 1450 1452 1455
1422 1423 1423 1422 1419 1421 1423 1428 1427 1428 1424 1423 1422 1408 1404 1406 1408 1409 1407 1404 1399 1393 1386 1381 1380 1379 1383 1388 1392 1396 1402 1409 1415 1420 1425 1428 1431 1434 1437 1441 1445 1448 1451 1453
1429 1423 1423 1422 1423 1425 1427 1429 1429 1428 1429 1423 1420 1405 1403 1404 1403 1407 1405 1403 1401 1395 1388 1385 1382 1385 1387 1392 1395 1398 1405 1409 1413 1418 1423 1427 1430 1432 1435 1438 1442 1445 1448 1451
1432 1427 1424 1413 1418 1422 1426 1424 1423 1430 1431 1425 1422 1407 1399 1400 1401 1403 1406 1405 1402 1401 1397 1391 1389 1389 1388 1391 1395 1398 1404 1410 1413 1418 1422 1426 1429 1432 1434 1437 1440 1443 1446 1449
1432 1431 1426 1422 1421 1423 1424 1423 1422 1423 1420 1421 1405 1406 1400 1398 1398 1400 1405 1404 1404 1404 1401 1397 1394 1391 1392 1393 1396 1400 1405 1409 1412 1416 1421 1424 1427 1430 1432 1435 1438 1441 1444 1446
1432 1430 1430 1423 1423 1424 1421 1417 1418 1416 1413 1411 1407 1401 1398 1394 1396 1400 1403 1402 1408 1409 1407 1401 1398 1396 1394 1395 1398 1402 1404 1408 1413 1415 1420 1423 1425 1427 1429 1432 1435 1437 1439 1441
1430 1428 1429 1423 1424 1419 1416 1415 1413 1413 1409 1407 1404 1398 1393 1395 1395 1399 1404 1404 1406 1412 1410 1405 1402 1402 1399 1398 1402 1402 1404 1410 1411 1414 1418 1419 1423 1425 1428 1429 1431 1433 1436 1438
1433 1428 1433 1427 1424 1424 1410 1410 1411 1410 1407 1403 1398 1395 1394 1400 1403 1404 1405 1406 1407 1409 1411 1409 1407 1407 1401 1402 1405 1405 1407 1411 1412 1415 1415 1417 1422 1426 1427 1427 1428 1429 1431 1433
1432 1431 1430 1427 1425 1416 1410 1413 1416 1413 1407 1408 1403 1402 1402 1403 1404 1411 1409 1409 1407 1410 1408 1411 1411 1409 1408 1410 1410 1408 1412 1408 1412 1412 1415 1419 1421 1425 1426 1425 1425 1427 1428 1430
1428 1427 1427 1434 1430 1426 1413 1415 1414 1411 1405 1412 1412 1406 1405 1405 1400 1412 1414 1413 1412 1414 1415 1415 1413 1414 1415 1416 1417 1418 1415 1415 1416 1418 1421 1424 1422 1425 1426 1425 1426 1426 1428 1429
1425 1425 1424 1428 1428 1419 1420 1416 1410 1407 1418 1417 1414 1405 1401 1404 1408 1413 1416 1415 1416 1417 1420 1420 1420 1420 1421 1423 1423 1419 1420 1417 1420 1423 1424 1424 1424 1426 1427 1427 1429 1428 1429 1430
1418 1424 1429 1429 1429 1425 1424 1417 1418 1427 1421 1420 1416 1410 1407 1410 1414 1416 1418 1418 1420 1422 1425 1425 1425 1426 1427 1427 1426 1423 1424 1424 1425 1426 1426 1425 1428 1430 1431 1431 1431 1431 1432 1433
1425 1428 1425 1425 1420 1427 1427 1428 1428 1425 1423 1422 1420 1418 1414 1412 1416 1421 1421 1422 1425 1427 1428 1430 1431 1431 1432 1433 1433 1430 1430 1431 1430 1430 1431 1432 1433 1434 1434 1433 1433 1432 1434 1436
1430 1432 1426 1424 1425 1427 1429 1430 1428 1426 1424 1423 1423 1424 1422 1419 1422 1423 1425 1427 1430 1432 1433 1435 1436 1437 1437 1437 1436 1435 1436 1436 1436 1435 1436 1436 1437 1438 1435 1436 1436 1437 1439 1439
1435 1433 1432 1426 1427 1430 1432 1432 1431 1430 1428 1426 1426 1427 1428 1425 1427 1428 1430 1432 1435 1437 1438 1439 1440 1441 1441 1441 1441 1441 1441 1441 1440 1438 1440 1441 1441 1440 1440 1440 1443 1444 1443 1444
1437 1437 1434 1430 1435 1436 1438 1436 1434 1433 1432 1432 1430 1430 1432 1430 1431 1433 1434 1437 1439 1441 1442 1443 1443 1445 1445 1445 1444 1443 1443 1444 1443 1443 1444 1444 1445 1445 1445 1447 1446 1446 1444 1445
Wind_Speed
5 7 13 16 11 13 9 11 13 10 8 14 17 22 20 18 17 18 20 21 21 24 25 23 21 24 26 31 32 31 29 25 21 21 22 23 22 21 20 21 22 24 32 39
1 11 11 7 11 9 10 12 13 10 8 9 14 23 20 18 21 25 26 23 24 28 30 29 25 25 27 31 35 33 30 26 22 22 21 21 19 17 15 16 15 22 25 31
10 4 2 11 6 8 9 10 9 10 13 12 17 20 18 16 22 25 23 23 24 26 31 29 29 29 28 32 38 35 33 27 23 21 19 19 16 15 14 16 14 15 18 31
7 8 8 6 7 8 7 6 9 7 6 4 6 10 11 16 17 16 21 22 23 26 27 30 32 32 33 34 37 36 33 27 23 22 21 20 18 16 17 14 11 6 7 12
6 5 6 12 13 8 5 2 4 6 8 7 9 7 5 6 12 15 16 22 23 23 22 28 32 31 29 32 37 38 33 28 23 23 19 19 17 16 17 17 14 9 12 15
5 1 4 4 3 6 3 2 6 5 4 4 11 12 7 6 5 9 10 12 11 15 15 15 20 23 26 29 37 38 33 28 23 21 17 16 16 17 20 19 18 17 18 19
4 6 2 3 3 1 3 1 2 1 3 4 1 9 12 15 12 11 10 16 18 16 11 11 18 23 27 31 36 36 34 30 24 19 15 15 16 15 19 19 20 19 17 20
6 3 8 5 10 4 6 5 3 3 2 2 1 6 1 8 11 15 15 17 18 19 14 13 17 22 27 30 36 37 35 31 24 19 15 14 16 14 16 16 16 16 17 19
4 2 2 4 2 4 3 5 1 2 3 4 4 4 10 13 17 19 21 23 26 27 19 13 16 20 22 25 30 35 36 29 22 19 15 16 17 17 15 14 14 13 15 18
3 1 1 3 3 3 3 4 3 3 3 4 3 3 4 14 18 19 19 21 24 25 19 8 10 18 19 22 27 33 31 27 21 17 13 15 17 16 14 11 8 9 10 11
3 2 1 5 6 8 4 2 3 1 3 2 3 1 4 9 11 13 15 20 21 21 18 7 5 12 15 22 26 29 27 26 21 17 12 11 15 16 14 12 9 7 8 12
2 3 4 6 2 6 5 6 5 2 2 3 1 4 3 6 10 12 13 17 19 18 17 13 9 14 18 21 24 26 27 23 20 16 12 11 10 14 14 13 13 12 10 10
7 1 3 4 3 5 2 1 1 4 3 4 3 2 2 2 6 4 11 13 17 19 20 19 19 17 19 18 20 21 22 22 20 16 12 11 9 9 11 10 11 11 11 11
7 1 5 3 5 3 3 4 3 3 2 3 7 14 13 3 3 5 8 11 13 16 17 20 22 23 26 25 24 23 20 17 16 14 11 9 7 6 8 9 9 8 8 9
2 1 3 1 2 2 2 6 7 7 8 7 10 14 16 12 6 9 10 13 15 15 16 18 19 22 23 24 22 22 20 19 17 16 13 11 10 9 9 8 8 8 7 6
2 1 2 3 3 2 6 10 8 8 7 14 15 19 15 18 5 12 13 18 13 12 13 15 17 18 21 21 20 19 19 19 17 15 12 10 9 10 11 12 12 12 13 13
2 4 1 3 2 7 3 4 5 3 7 7 8 15 11 4 5 12 15 19 19 11 11 18 20 19 19 20 18 20 20 16 16 15 12 10 7 7 10 11 12 14 15 15
6 2 2 3 2 1 4 7 5 6 6 13 14 7 3 11 16 15 11 17 21 13 15 18 20 20 23 20 19 19 18 16 11 10 9 7 7 5 6 7 8 9 9 11
9 2 1 2 1 7 1 4 6 6 9 17 15 3 9 17 19 15 13 16 20 17 19 18 19 21 21 19 18 18 15 17 14 8 7 8 8 7 6 6 4 3 3 3
6 2 1 2 2 3 3 9 13 7 3 18 19 5 9 12 4 4 9 15 18 18 16 17 18 18 19 19 17 14 18 17 16 14 12 11 11 10 10 10 9 9 8 8
3 2 6 4 3 4 6 16 11 1 6 19 17 20 15 5 8 19 17 19 19 18 15 14 14 14 14 14 15 17 19 21 20 17 15 15 15 14 14 13 12 12 12 11
2 4 2 3 3 4 14 5 5 8 5 9 12 14 26 27 26 22 19 20 18 17 16 15 15 16 15 15 13 16 17 19 16 15 15 15 14 14 14 13 14 13 12 11
1 2 1 4 1 3 5 3 4 7 6 6 10 14 26 28 23 20 21 20 18 17 16 15 16 16 16 15 16 19 20 17 17 17 18 18 17 16 16 16 16 16 16 16
2 6 1 3 4 7 7 7 7 7 12 12 13 12 19 26 22 20 18 17 16 15 15 14 14 16 16 15 16 18 17 16 17 20 21 21 20 19 20 19 19 19 19 18
2 6 4 4 4 3 14 12 8 9 10 13 15 16 16 19 17 17 17 16 15 15 15 15 16 17 17 17 18 17 17 16 18 20 21 20 20 20 19 19 19 18 18 16
3 3 2 2 5 3 7 8 7 12 14 14 15 16 13 14 16 14 17 16 16 17 17 18 19 19 19 18 19 19 18 16 16 17 18 18 17 17 17 16 16 16 15 13
Wind_Direction
181 207 220 227 223 238 271 274 269 270 268 294 283 282 286 282 277 282 278 274 275 272 271 269 264 261 252 232 225 224 222 222 218 207 207 214 221 223 226 226 230 231 231 226
188 234 237 214 216 233 249 268 278 281 257 294 293 286 285 275 275 274 275 267 264 271 266 264 263 258 253 231 222 221 220 221 220 211 216 216 215 217 220 232 237 243 244 225
207 210 130 206 203 228 244 247 266 279 308 290 289 288 274 260 253 255 256 257 263 263 261 257 255 255 245 226 219 218 218 216 216 211 209 215 210 215 218 221 235 255 253 224
239 234 207 185 221 197 264 237 254 281 306 288 11 292 283 279 266 246 244 251 260 264 253 250 254 248 240 221 214 215 214 213 210 206 212 213 210 208 210 205 226 249 210 216
223 187 195 221 237 185 233 228 239 263 268 292 260 261 319 292 270 262 253 247 249 263 264 254 248 238 223 212 211 211 209 210 206 206 216 210 213 211 208 205 197 178 202 175
244 276 184 201 186 191 148 231 259 248 257 256 239 219 282 279 324 321 327 280 312 300 287 254 231 219 210 206 210 209 204 207 206 204 211 208 210 206 201 196 197 194 186 185
193 219 193 163 185 195 181 164 292 240 193 260 95 178 259 329 358 4 357 350 338 331 309 244 217 205 206 207 208 206 201 202 204 202 197 201 200 201 202 201 205 206 203 210
204 215 175 185 211 207 181 188 221 247 233 300 200 233 181 28 17 11 15 0 340 334 320 260 230 213 207 203 204 201 195 198 202 197 189 193 194 189 200 207 218 226 222 224
178 263 163 163 163 180 139 199 263 298 233 268 241 260 191 14 18 10 7 6 352 344 327 288 235 218 205 201 200 192 193 196 197 192 184 188 194 194 195 201 210 223 231 228
226 199 28 110 101 40 163 141 187 171 245 240 256 258 331 19 9 0 2 4 355 350 350 343 210 211 199 192 187 197 194 192 191 189 185 187 191 193 199 203 205 208 210 214
183 214 80 149 197 178 166 207 226 237 236 270 297 277 93 54 28 8 5 0 356 357 3 16 139 158 181 182 184 193 187 185 185 184 187 189 190 188 190 199 200 195 205 208
236 168 194 213 111 198 179 190 203 217 204 236 269 270 143 90 39 20 19 8 2 3 28 59 114 136 162 177 180 176 175 178 180 177 181 184 182 187 188 190 193 204 204 206
338 197 192 145 111 65 138 131 301 290 239 248 280 309 169 72 35 332 41 30 12 8 26 72 100 109 137 161 168 164 167 173 171 167 172 175 174 181 184 182 194 209 215 210
1 340 274 191 95 132 188 235 253 153 266 359 276 284 293 260 323 73 54 46 37 16 26 58 90 104 118 133 146 149 150 155 151 151 154 157 166 162 167 170 179 193 211 222
76 352 323 159 105 171 193 248 252 241 239 242 278 275 282 291 255 130 103 62 44 27 29 52 70 95 109 122 131 140 146 147 150 158 167 174 179 179 172 185 197 207 215 222
36 197 233 318 154 194 268 278 283 260 256 257 273 279 283 279 219 139 117 91 62 42 39 54 72 79 94 103 111 124 133 146 162 163 172 185 191 200 200 203 211 215 224 232
284 173 228 268 283 318 253 157 335 286 292 278 299 304 291 333 192 142 124 104 90 54 58 64 66 65 83 95 103 110 114 123 145 152 150 151 179 196 208 209 213 220 226 233
289 170 226 252 312 234 112 325 114 333 298 317 308 319 106 104 81 76 96 111 106 100 74 68 70 69 73 80 90 101 110 118 118 118 118 135 157 176 183 187 193 204 217 230
218 187 215 322 281 307 25 65 16 357 328 13 357 87 135 128 96 56 71 93 92 84 74 69 73 70 74 76 80 90 100 101 111 115 108 111 123 124 125 130 133 146 173 177
143 145 184 138 271 254 60 334 325 293 242 7 346 283 182 189 166 115 88 90 92 88 78 77 69 60 63 68 77 86 84 89 92 90 100 97 98 97 93 91 91 93 93 93
104 104 217 211 258 283 3 324 321 188 345 340 337 319 225 176 91 117 110 94 90 86 80 80 81 79 69 66 72 73 72 73 76 80 85 87 86 86 81 81 85 83 80 80
154 150 178 170 225 268 3 7 35 321 337 3 12 59 95 99 105 108 97 87 85 80 78 78 83 82 78 74 73 78 74 73 78 80 82 82 85 91 96 96 95 92 88 86
89 7 258 234 303 71 40 81 9 22 49 33 73 92 112 114 108 101 91 86 81 79 79 81 83 83 81 78 79 82 80 81 83 87 88 88 93 96 98 100 97 95 95 93
80 5 297 290 72 49 42 57 50 66 89 99 108 107 118 111 111 102 92 85 82 84 86 90 93 89 83 77 78 79 82 85 87 88 88 86 85 87 85 83 83 85 83 82
1 330 358 300 54 70 54 49 56 80 98 109 110 104 100 107 95 96 93 91 90 91 91 94 91 87 85 84 81 81 82 84 86 86 84 83 81 79 80 81 83 81 81 78
10 10 314 326 351 66 58 60 85 91 89 98 110 110 102 97 99 99 100 104 105 100 97 95 91 86 83 83 83 82 78 75 75 79 79 76 74 74 74 73 75 72 68 61